Location: Chmeln�
(49.6483°N, 14.9871°E)
Time: 06:12:12
(UTC+00:00)

ATLAS CENTAUR R/B - Pass Details

Date: 18 September 2020
Orbit: 479 x 667 km, 64.7° (Epoch: 12 October)

Event Time Altitude Azimuth Distance (km) Brightness Sun altitude
Rises 17:48:24 0° 257° (WSW) 2,665 6.2 -7.6°
Reaches altitude 10° 17:50:59 10° 273° (W) 1,746 5.5 -8.0°
Maximum altitude 17:54:05 22° 326° (NW) 1,140 3.6 -8.5°
Drops below altitude 10° 17:57:05 10° 19° (NNE) 1,693 3.8 -9.0°
Sets 17:59:34 0° 35° (NE) 2,561 4.5 -9.4°
